This demonstration page uses our WeatherBlox Daily Observations layout. Learn more.

Left ArrowRight Arrow

39.08367, -84.50855

Hourly Observations for April 11, 2019

Temp ( °F °C ) Dew Point ( °F °C ) Humidity (%) Winds ( mph kmh ) Pressure ( in mb ) Visibility ( mi km ) Precip ( " mm )
12:53 am 00:53 Clear 53 11.7 39 3.9 59 59 ENE 7 11 29.86 1011 10 16.0934 0 0
1:53 am 01:53 Clear 51 10.6 39 3.9 64 64 NE 8 13 29.87 1011 10 16.0934 0 0
2:53 am 02:53 Clear 50 10 39 3.9 66 66 NE 7 11 29.85 1011 10 16.0934 0 0
3:53 am 03:53 Clear 49 9.4 38 3.3 66 66 NE 7 11 29.84 1011 10 16.0934 0 0
4:53 am 04:53 Clear 48 8.9 38 3.3 68 68 NNE 6 9 29.83 1010 10 16.0934 0 0
5:53 am 05:53 Clear 47 8.3 37 2.8 69 69 NE 6 9 29.83 1010 10 16.0934 0 0
6:53 am 06:53 Clear 46 7.8 39 3.9 77 77 Calm 29.84 1011 10 16.0934 0 0
7:53 am 07:53 Sunny 48 8.9 39 3.9 71 71 NE 5 7 29.85 1011 10 16.0934 0 0
8:53 am 08:53 Sunny 51 10.6 40 4.4 66 66 NNE 5 7 29.86 1011 10 16.0934 0 0
9:53 am 09:53 Sunny 56 13.3 41 5 57 57 NNE 7 11 29.85 1011 10 16.0934 0 0
10:53 am 10:53 Sunny 63 17.2 42 5.6 47 47 SSE 6 9 29.84 1011 10 16.0934 0 0
11:53 am 11:53 Sunny 68 20 47 8.3 47 47 S 7 11 29.83 1010 10 16.0934 0 0
12:53 pm 12:53 Sunny 73 22.8 51 10.6 46 46 S 9 15 29.81 1010 10 16.0934 0 0
1:53 pm 13:53 Sunny 77 25 55 12.8 47 47 S 13 20 29.78 1008 10 16.0934 0 0
2:53 pm 14:53 Sunny 81 27.2 56 13.3 42 42 S 14 22 29.75 1007 10 16.0934 0 0
3:53 pm 15:53 Sunny 81 27.2 54 12.2 39 39 S 24 39 29.73 1007 10 16.0934 0 0
4:53 pm 16:53 Mostly Sunny 81 27.2 56 13.3 42 42 S 14 22 29.72 1007 10 16.0934 0 0
5:53 pm 17:53 Sunny 81 27.2 55 12.8 41 41 S 13 20 29.71 1006 10 16.0934 0 0
6:53 pm 18:53 Mostly Sunny 80 26.7 51 10.6 37 37 SSE 16 26 29.72 1007 10 16.0934 0 0
7:53 pm 19:53 Mostly Sunny 79 26.1 50 10 36 36 S 12 19 29.72 1006 10 16.0934 0 0
8:53 pm 20:53 Clear 77 25 50 10 39 39 S 9 15 29.72 1007 10 16.0934 0 0
9:53 pm 21:53 Mostly Cloudy 74 23.3 51 10.6 45 45 SSE 7 11 29.74 1007 10 16.0934 0 0
10:53 pm 22:53 Clear 74 23.3 50 10 43 43 S 9 15 29.73 1007 10 16.0934 0 0
11:53 pm 23:53 Clear 74 23.3 48 8.9 40 40 S 12 19 29.73 1007 10 16.0934 0 0

Powered by AerisWeather